Location: Calvatone
(45.1167°N, 10.4333°E)
Time: 08:59:56
(UTC+00:00)

ATLAS CENTAUR R/B - Pass Details

Date: 28 January 2023
Orbit: 449 x 650 km, 64.7° (Epoch: 28 March)

Event Time Altitude Azimuth Distance (km) Brightness Sun altitude
Rises 19:13:07 0° 252° (WSW) 2,987 6.0 -30.6°
Reaches altitude 10° 19:15:52 10° 267° (W) 2,063 5.1 -31.1°
Maximum altitude 19:19:37 23° 320° (NW) 1,359 3.7 -31.7°
Enters shadow 19:19:47 23° 323° (NW) 1,360 3.6 -31.7°
